Погода в Синтае

Китай     37°03′46″N   114°28′27″E
В апреле 2022 года жителям России запретили посещать сайт meteo.paraplan.net по решению Генеральной прокуратуры. Аудитория сайта уменьшилась в 10 раз. Владельцы сайта не видят смысла в поддержке погодного сервера в таких условиях. Сайт будет закрыт в октябре.
темп.,
°C
ветер,
м/с
пор.,
м/с
влажн.,
%
обл.,
%
осадки,
мм/ч
давл.,
гПа
погр.,
м
30 сентября, пт
пт3023:00+23ю493373 0.0 1011205
02:00+22ю5114020 0.0 1010222
05:00+20ююз38430 0.0 1010129
08:00+24ю48340 0.0 1011280
11:00+31ю66275 0.0 10101154
14:00+34ю55210 0.0 10071951
17:00+32ююв6624100 0.0 10071441
20:00+25ююв3843100 0.0 1010137
1 октября, сб
сб123:00+23ю3657100 0.0 1011132
02:00+22ю386695 0.0 1011194
05:00+22ююз4872100 0.1 1011428
08:00+20ю3583100 1.1 1012296
11:00+19з2393100 7.5 1013225
14:00+19ссз4593100 14.8 1010303
17:00+18ссз4894100 10.1 1010341
20:00+19ссз71292100 14.9 1011572
2 октября, вс
вс223:00+18с81290100 2.3 1012552
02:00+18с61184100 2.3 1011610
05:00+18с71186100 0.0 1011741
08:00+18с698599 0.0 1012705
11:00+19с6882100 0.0 1013663
14:00+19с6880100 0.0 1012613
17:00+19ссв467999 0.0 1012408
20:00+18ссв248188 0.0 1012240
3 октября, пн
пн323:00+18ссз228482 0.0 101225
02:00+17с119087 0.6 101217
05:00+18ссв119284 1.1 101144
08:00+18ссв2291100 1.5 1012184
11:00+18с3390100 0.1 1013308
14:00+18с6996100 5.6 1013536
17:00+16с71392100 12.2 1017574
20:00+16ссв61092100 16.9 1022838
4 октября, вт
вт423:00+13ссв61385100 1.1 1025758
02:00+12ссв51175100 1.1 1027905
05:00+12ссв41064100 0.0 1029971
08:00+11ссв51056100 0.0 10321047
11:00+11ссв5734100 0.0 1033956
14:00+12св3433100 0.0 10311158
17:00+12всв2238100 0.0 10301029
20:00+10юв224444 0.0 103119